World > North America > United States > Illinois

Hourly Midland City, IL Regional Weather

Feedback E-mail the Weather

Quick WX

Midland City, IL Weather Maps

°F °C°F °C
Midland City Weather Map
UTC Time: 6/30/2022, 16:47
Your Time:

Midland City, IL Regional Weather

Expires:202206301700;;446632
ASUS43 KLOT 301609
RWRIL 

ILLINOIS REGIONAL WEATHER ROUNDUP
NATIONAL WEATHER SERVICE CHICAGO/ROMEOVILLE IL
1100 AM CDT THU JUN 30 2022

NOTE: "FAIR" INDICATES FEW OR NO CLOUDS BELOW 12,000 FEET WITH NO
SIGNIFICANT WEATHER AND/OR OBSTRUCTIONS TO VISIBILITY.

* THESE STATIONS ARE NOT UNDER NWS QUALITY CONTROL. THEY ALSO MAY NOT
  REPORT WEATHER SUCH AS PRECIPITATION OR FOG.


ILZ028>032-037-038-041>044-048-051>054-059>061-301700-
CENTRAL ILLINOIS
  
CITY           SKY/WX    TMP DP  RH WIND       PRES   REMARKS
PONTIAC        SUNNY     83  60  45 SW12G20   30.10S HX  84           
BLOOMINGTON    SUNNY     81  61  50 SW15      30.11F HX  82           
DECATUR        SUNNY     84  55  36 S17       30.12F HX  83           
PEORIA         SUNNY     84  60  44 S14G21    30.07F HX  84           
LACON*         SUNNY     82  64  54 S12G20    30.05F HX  84           
LINCOLN*       SUNNY     82  62  49 SW7       30.10S HX  83           
SPRINGFIELD    SUNNY     82  57  42 SW12G21   30.09F HX  82           
TAYLORVILLE    SUNNY     81  59  47 SW8       30.12F HX  81           
$$


SKY/WX - Weather  TMP - Temperature  DP - Dew Point  RH - Humidity
WIND - Wind Direction/Speed PRES - Barometric Pressure VSB - Visibility
WCI - Wind Chill Index E13G22 Wind - East Wind 13 mph/Gusts of 22 mph

Trending Headlines

Midland City Radar Loop



Midland City Quick Facts


National Two Day Weather Forecast


E-mail the Midland City Weather Forecast

Voice your opinion or tell us about page issues...